{"data":{"norad_id":48069,"epoch":"2026-09-20T01:12:57.972672Z","epoch_age_seconds":57055,"freshness":"FRESH","line1":"1 48069U 21025AD  26263.05067098 -.00000172  00000+0 -50570-3 0  9992","line2":"2 48069  87.8922 301.3486 0001520  92.8624 267.2679 13.13469802266256","mean_motion":13.13469802,"eccentricity":0.000152,"inclination_deg":87.8922,"raan_deg":301.3486,"arg_perigee_deg":92.8624,"mean_anomaly_deg":267.2679,"bstar":-0.0005057,"rev_number":26625,"period_min":109.63327804014,"perigee_km":1208.6128011823,"apogee_km":1210.9195237437,"semimajor_km":7587.903162463,"source":"CELESTRAK","updated_at":"2026-09-20T09:00:44.589936Z"}}